Year,Month,Day,Hour,Minute,Value (Times are PST for windspeed in km/hr)
2012,03,11,00,00,0.00
2012,03,11,00,01,0.00
2012,03,11,00,02,0.00
2012,03,11,00,03,0.00
2012,03,11,00,04,0.00
2012,03,11,00,05,0.50
2012,03,11,00,06,0.10
2012,03,11,00,07,0.00
2012,03,11,00,08,0.00
2012,03,11,00,09,4.00
2012,03,11,00,10,2.90
2012,03,11,00,11,1.00
2012,03,11,00,12,2.10
2012,03,11,00,13,0.70
2012,03,11,00,14,0.20
2012,03,11,00,15,2.30
2012,03,11,00,16,5.70
2012,03,11,00,17,1.50
2012,03,11,00,18,0.00
2012,03,11,00,19,0.00
2012,03,11,00,20,0.00
2012,03,11,00,21,0.00
2012,03,11,00,22,0.00
2012,03,11,00,23,0.00
2012,03,11,00,24,0.00
2012,03,11,00,25,0.00
2012,03,11,00,26,0.00
2012,03,11,00,27,0.00
2012,03,11,00,28,0.00
2012,03,11,00,29,0.00
2012,03,11,00,30,0.00
2012,03,11,00,31,0.00
2012,03,11,00,32,0.00
2012,03,11,00,33,0.00
2012,03,11,00,34,0.00
2012,03,11,00,35,0.00
2012,03,11,00,36,0.00
2012,03,11,00,37,0.00
2012,03,11,00,38,0.00
2012,03,11,00,39,0.00
2012,03,11,00,40,0.00
2012,03,11,00,41,0.00
2012,03,11,00,42,0.00
2012,03,11,00,43,0.00
2012,03,11,00,44,0.30
2012,03,11,00,45,4.90
2012,03,11,00,46,0.10
2012,03,11,00,47,0.00
2012,03,11,00,48,0.70
2012,03,11,00,49,0.10
2012,03,11,00,50,0.00
2012,03,11,00,51,0.00
2012,03,11,00,52,0.20
2012,03,11,00,53,1.90
2012,03,11,00,54,2.70
2012,03,11,00,55,0.00
2012,03,11,00,56,0.00
2012,03,11,00,57,0.00
2012,03,11,00,58,0.00
2012,03,11,00,59,0.00
2012,03,11,01,00,0.80
2012,03,11,01,01,0.00
2012,03,11,01,02,0.00
2012,03,11,01,03,0.00
2012,03,11,01,04,0.00
2012,03,11,01,05,0.00
2012,03,11,01,06,0.00
2012,03,11,01,07,0.00
2012,03,11,01,08,0.00
2012,03,11,01,09,0.00
2012,03,11,01,10,0.20
2012,03,11,01,11,0.30
2012,03,11,01,12,1.20
2012,03,11,01,13,1.90
2012,03,11,01,14,1.20
2012,03,11,01,15,3.50
2012,03,11,01,16,5.10
2012,03,11,01,17,1.80
2012,03,11,01,18,0.80
2012,03,11,01,19,0.00
2012,03,11,01,20,1.10
2012,03,11,01,21,0.60
2012,03,11,01,22,0.00
2012,03,11,01,23,0.00
2012,03,11,01,24,0.00
2012,03,11,01,25,0.00
2012,03,11,01,26,0.00
2012,03,11,01,27,0.00
2012,03,11,01,28,0.00
2012,03,11,01,29,0.00
2012,03,11,01,30,0.00
2012,03,11,01,31,0.00
2012,03,11,01,32,0.00
2012,03,11,01,33,0.00
2012,03,11,01,34,0.00
2012,03,11,01,35,0.00
2012,03,11,01,36,0.20
2012,03,11,01,37,0.30
2012,03,11,01,38,2.60
2012,03,11,01,39,2.40
2012,03,11,01,40,0.60
2012,03,11,01,41,0.90
2012,03,11,01,42,0.30
2012,03,11,01,43,0.10
2012,03,11,01,44,2.40
2012,03,11,01,45,0.90
2012,03,11,01,46,0.70
2012,03,11,01,47,3.00
2012,03,11,01,48,2.70
2012,03,11,01,49,0.20
2012,03,11,01,50,1.10
2012,03,11,01,51,0.20
2012,03,11,01,52,1.00
2012,03,11,01,53,3.00
2012,03,11,01,54,1.50
2012,03,11,01,55,0.00
2012,03,11,01,56,1.70
2012,03,11,01,57,0.20
2012,03,11,01,58,0.00
2012,03,11,01,59,0.00
2012,03,11,03,00,0.00
2012,03,11,03,01,0.00
2012,03,11,03,02,0.00
2012,03,11,03,03,0.00
2012,03,11,03,04,0.00
2012,03,11,03,05,0.00
2012,03,11,03,06,0.00
2012,03,11,03,07,1.40
2012,03,11,03,08,2.80
2012,03,11,03,09,3.50
2012,03,11,03,10,0.90
2012,03,11,03,11,1.00
2012,03,11,03,12,1.80
2012,03,11,03,13,2.20
2012,03,11,03,14,0.20
2012,03,11,03,15,0.00
2012,03,11,03,16,0.30
2012,03,11,03,17,0.40
2012,03,11,03,18,0.00
2012,03,11,03,19,2.10
2012,03,11,03,20,0.70
2012,03,11,03,21,0.00
2012,03,11,03,22,3.20
2012,03,11,03,23,1.90
2012,03,11,03,24,0.60
2012,03,11,03,25,0.00
2012,03,11,03,26,0.00
2012,03,11,03,27,0.10
2012,03,11,03,28,0.00
2012,03,11,03,29,0.00
2012,03,11,03,30,0.00
2012,03,11,03,31,0.00
2012,03,11,03,32,0.00
2012,03,11,03,33,0.00
2012,03,11,03,34,0.00
2012,03,11,03,35,0.00
2012,03,11,03,36,0.00
2012,03,11,03,37,0.80
2012,03,11,03,38,1.40
2012,03,11,03,39,0.00
2012,03,11,03,40,0.00
2012,03,11,03,41,0.40
2012,03,11,03,42,1.80
2012,03,11,03,43,4.70
2012,03,11,03,44,2.30
2012,03,11,03,45,0.00
2012,03,11,03,46,0.00
2012,03,11,03,47,0.00
2012,03,11,03,48,0.00
2012,03,11,03,49,1.50
2012,03,11,03,50,1.60
2012,03,11,03,51,0.60
2012,03,11,03,52,0.00
2012,03,11,03,53,0.00
2012,03,11,03,54,0.10
2012,03,11,03,55,0.30
2012,03,11,03,56,0.00
2012,03,11,03,57,0.00
2012,03,11,03,58,0.00
2012,03,11,03,59,1.90
2012,03,11,04,00,0.60
2012,03,11,04,01,0.80
2012,03,11,04,02,0.80
2012,03,11,04,03,0.20
2012,03,11,04,04,2.10
2012,03,11,04,05,2.80
2012,03,11,04,06,0.10
2012,03,11,04,07,0.00
2012,03,11,04,08,0.00
2012,03,11,04,09,0.10
2012,03,11,04,10,1.00
2012,03,11,04,11,0.20
2012,03,11,04,12,2.10
2012,03,11,04,13,1.00
2012,03,11,04,14,1.90
2012,03,11,04,15,2.20
2012,03,11,04,16,2.20
2012,03,11,04,17,4.40
2012,03,11,04,18,5.10
2012,03,11,04,19,0.00
2012,03,11,04,20,1.80
2012,03,11,04,21,0.90
2012,03,11,04,22,0.40
2012,03,11,04,23,4.70
2012,03,11,04,24,4.20
2012,03,11,04,25,6.40
2012,03,11,04,26,4.70
2012,03,11,04,27,8.30
2012,03,11,04,28,9.30
2012,03,11,04,29,7.80
2012,03,11,04,30,3.50
2012,03,11,04,31,3.10
2012,03,11,04,32,2.40
2012,03,11,04,33,4.90
2012,03,11,04,34,2.10
2012,03,11,04,35,4.90
2012,03,11,04,36,1.90
2012,03,11,04,37,6.90
2012,03,11,04,38,3.00
2012,03,11,04,39,3.10
2012,03,11,04,40,6.70
2012,03,11,04,41,4.70
2012,03,11,04,42,6.10
2012,03,11,04,43,8.40
2012,03,11,04,44,5.20
2012,03,11,04,45,3.70
2012,03,11,04,46,1.40
2012,03,11,04,47,6.70
2012,03,11,04,48,5.40
2012,03,11,04,49,4.30
2012,03,11,04,50,4.90
2012,03,11,04,51,3.40
2012,03,11,04,52,7.30
2012,03,11,04,53,4.70
2012,03,11,04,54,1.70
2012,03,11,04,55,4.10
2012,03,11,04,56,6.10
2012,03,11,04,57,4.20
2012,03,11,04,58,5.80
2012,03,11,04,59,7.00
2012,03,11,05,00,1.30
2012,03,11,05,01,4.50
2012,03,11,05,02,4.70
2012,03,11,05,03,1.80
2012,03,11,05,04,2.60
2012,03,11,05,05,7.50
2012,03,11,05,06,2.80
2012,03,11,05,07,0.10
2012,03,11,05,08,2.00
2012,03,11,05,09,0.00
2012,03,11,05,10,1.90
2012,03,11,05,11,1.50
2012,03,11,05,12,0.30
2012,03,11,05,13,0.10
2012,03,11,05,14,0.00
2012,03,11,05,15,0.00
2012,03,11,05,16,1.20
2012,03,11,05,17,1.10
2012,03,11,05,18,0.30
2012,03,11,05,19,1.40
2012,03,11,05,20,0.50
2012,03,11,05,21,2.90
2012,03,11,05,22,3.40
2012,03,11,05,23,1.00
2012,03,11,05,24,2.60
2012,03,11,05,25,5.70
2012,03,11,05,26,6.10
2012,03,11,05,27,1.00
2012,03,11,05,28,2.50
2012,03,11,05,29,5.90
2012,03,11,05,30,3.50
2012,03,11,05,31,0.10
2012,03,11,05,32,2.40
2012,03,11,05,33,5.80
2012,03,11,05,34,0.90
2012,03,11,05,35,0.60
2012,03,11,05,36,8.30
2012,03,11,05,37,4.20
2012,03,11,05,38,4.60
2012,03,11,05,39,5.60
2012,03,11,05,40,2.70
2012,03,11,05,41,3.70
2012,03,11,05,42,5.90
2012,03,11,05,43,5.10
2012,03,11,05,44,5.90
2012,03,11,05,45,10.20
2012,03,11,05,46,5.10
2012,03,11,05,47,3.40
2012,03,11,05,48,6.40
2012,03,11,05,49,3.80
2012,03,11,05,50,4.70
2012,03,11,05,51,7.40
2012,03,11,05,52,3.80
2012,03,11,05,53,6.40
2012,03,11,05,54,4.30
2012,03,11,05,55,4.20
2012,03,11,05,56,8.00
2012,03,11,05,57,10.20
2012,03,11,05,58,4.20
2012,03,11,05,59,3.30
2012,03,11,06,00,6.80
2012,03,11,06,01,4.30
2012,03,11,06,02,5.30
2012,03,11,06,03,5.90
2012,03,11,06,04,6.50
2012,03,11,06,05,4.00
2012,03,11,06,06,10.40
2012,03,11,06,07,3.20
2012,03,11,06,08,6.10
2012,03,11,06,09,3.10
2012,03,11,06,10,10.80
2012,03,11,06,11,9.10
2012,03,11,06,12,5.50
2012,03,11,06,13,6.20
2012,03,11,06,14,9.40
2012,03,11,06,15,3.40
2012,03,11,06,16,5.50
2012,03,11,06,17,5.80
2012,03,11,06,18,3.50
2012,03,11,06,19,3.20
2012,03,11,06,20,3.80
2012,03,11,06,21,2.80
2012,03,11,06,22,4.30
2012,03,11,06,23,6.20
2012,03,11,06,24,6.50
2012,03,11,06,25,2.50
2012,03,11,06,26,6.30
2012,03,11,06,27,5.40
2012,03,11,06,28,4.00
2012,03,11,06,29,3.80
2012,03,11,06,30,3.50
2012,03,11,06,31,3.10
2012,03,11,06,32,9.10
2012,03,11,06,33,9.50
2012,03,11,06,34,6.80
2012,03,11,06,35,3.80
2012,03,11,06,36,10.60
2012,03,11,06,37,3.80
2012,03,11,06,38,5.70
2012,03,11,06,39,4.70
2012,03,11,06,40,6.60
2012,03,11,06,41,9.70
2012,03,11,06,42,5.30
2012,03,11,06,43,3.80
2012,03,11,06,44,8.80
2012,03,11,06,45,3.10
2012,03,11,06,46,5.50
2012,03,11,06,47,6.30
2012,03,11,06,48,3.80
2012,03,11,06,49,5.60
2012,03,11,06,50,4.40
2012,03,11,06,51,2.90
2012,03,11,06,52,3.10
2012,03,11,06,53,1.40
2012,03,11,06,54,3.00
2012,03,11,06,55,3.30
2012,03,11,06,56,7.90
2012,03,11,06,57,3.60
2012,03,11,06,58,3.40
2012,03,11,06,59,5.30
2012,03,11,07,00,5.00
2012,03,11,07,01,3.10
2012,03,11,07,02,1.80
2012,03,11,07,03,5.70
2012,03,11,07,04,4.10
2012,03,11,07,05,8.50
2012,03,11,07,06,4.80
2012,03,11,07,07,4.80
2012,03,11,07,08,3.50
2012,03,11,07,09,3.60
2012,03,11,07,10,2.20
2012,03,11,07,11,5.60
2012,03,11,07,12,7.60
2012,03,11,07,13,10.00
2012,03,11,07,14,10.10
2012,03,11,07,15,9.40
2012,03,11,07,16,4.90
2012,03,11,07,17,4.50
2012,03,11,07,18,1.90
2012,03,11,07,19,6.00
2012,03,11,07,20,3.30
2012,03,11,07,21,4.40
2012,03,11,07,22,4.60
2012,03,11,07,23,5.90
2012,03,11,07,24,4.70
2012,03,11,07,25,7.50
2012,03,11,07,26,6.00
2012,03,11,07,27,4.10
2012,03,11,07,28,3.10
2012,03,11,07,29,4.10
2012,03,11,07,30,3.20
2012,03,11,07,31,4.30
2012,03,11,07,32,3.90
2012,03,11,07,33,4.40
2012,03,11,07,34,6.60
2012,03,11,07,35,5.90
2012,03,11,07,36,7.20
2012,03,11,07,37,4.50
2012,03,11,07,38,3.60
2012,03,11,07,39,4.60
2012,03,11,07,40,5.30
2012,03,11,07,41,7.60
2012,03,11,07,42,4.10
2012,03,11,07,43,3.00
2012,03,11,07,44,6.40
2012,03,11,07,45,6.10
2012,03,11,07,46,4.90
2012,03,11,07,47,6.40
2012,03,11,07,48,2.50
2012,03,11,07,49,3.20
2012,03,11,07,50,1.80
2012,03,11,07,51,5.30
2012,03,11,07,52,2.60
2012,03,11,07,53,3.50
2012,03,11,07,54,1.70
2012,03,11,07,55,5.30
2012,03,11,07,56,3.90
2012,03,11,07,57,4.90
2012,03,11,07,58,4.80
2012,03,11,07,59,3.70
2012,03,11,08,00,2.10
2012,03,11,08,01,1.50
2012,03,11,08,02,1.80
2012,03,11,08,03,3.50
2012,03,11,08,04,4.70
2012,03,11,08,05,2.40
2012,03,11,08,06,4.00
2012,03,11,08,07,9.20
2012,03,11,08,08,5.90
2012,03,11,08,09,5.40
2012,03,11,08,10,5.20
2012,03,11,08,11,3.60
2012,03,11,08,12,6.40
2012,03,11,08,13,5.60
2012,03,11,08,14,1.50
2012,03,11,08,15,4.20
2012,03,11,08,16,2.80
2012,03,11,08,17,7.80
2012,03,11,08,18,4.70
2012,03,11,08,19,1.90
2012,03,11,08,20,3.10
2012,03,11,08,21,9.30
2012,03,11,08,22,5.30
2012,03,11,08,23,6.70
2012,03,11,08,24,5.30
2012,03,11,08,25,6.00
2012,03,11,08,26,9.50
2012,03,11,08,27,4.30
2012,03,11,08,28,7.50
2012,03,11,08,29,1.60
2012,03,11,08,30,5.10
2012,03,11,08,31,7.20
2012,03,11,08,32,2.30
2012,03,11,08,33,6.10
2012,03,11,08,34,5.00
2012,03,11,08,35,4.50
2012,03,11,08,36,5.40
2012,03,11,08,37,11.90
2012,03,11,08,38,11.00
2012,03,11,08,39,4.70
2012,03,11,08,40,7.30
2012,03,11,08,41,9.70
2012,03,11,08,42,6.20
2012,03,11,08,43,3.00
2012,03,11,08,44,1.60
2012,03,11,08,45,6.40
2012,03,11,08,46,5.20
2012,03,11,08,47,3.50
2012,03,11,08,48,6.90
2012,03,11,08,49,5.70
2012,03,11,08,50,8.90
2012,03,11,08,51,7.80
2012,03,11,08,52,5.20
2012,03,11,08,53,4.40
2012,03,11,08,54,3.90
2012,03,11,08,55,8.90
2012,03,11,08,56,7.60
2012,03,11,08,57,4.70
2012,03,11,08,58,7.70
2012,03,11,08,59,7.40
2012,03,11,09,00,6.10
2012,03,11,09,01,12.20
2012,03,11,09,02,6.50
2012,03,11,09,03,2.50
2012,03,11,09,04,13.90
2012,03,11,09,05,12.70
2012,03,11,09,06,12.20
2012,03,11,09,07,8.60
2012,03,11,09,08,6.40
2012,03,11,09,09,13.40
2012,03,11,09,10,9.20
2012,03,11,09,11,9.70
2012,03,11,09,12,13.40
2012,03,11,09,13,8.40
2012,03,11,09,14,7.20
2012,03,11,09,15,15.40
2012,03,11,09,16,8.90
2012,03,11,09,17,7.80
2012,03,11,09,18,15.10
2012,03,11,09,19,13.10
2012,03,11,09,20,12.20
2012,03,11,09,21,15.20
2012,03,11,09,22,15.00
2012,03,11,09,23,14.80
2012,03,11,09,24,10.30
2012,03,11,09,25,8.00
2012,03,11,09,26,6.90
2012,03,11,09,27,8.70
2012,03,11,09,28,12.30
2012,03,11,09,29,4.80
2012,03,11,09,30,1.20
2012,03,11,09,31,6.60
2012,03,11,09,32,11.00
2012,03,11,09,33,12.40
2012,03,11,09,34,11.50
2012,03,11,09,35,13.00
2012,03,11,09,36,11.30
2012,03,11,09,37,4.70
2012,03,11,09,38,6.00
2012,03,11,09,39,7.80
2012,03,11,09,40,6.20
2012,03,11,09,41,10.10
2012,03,11,09,42,12.40
2012,03,11,09,43,9.70
2012,03,11,09,44,15.20
2012,03,11,09,45,11.20
2012,03,11,09,46,11.60
2012,03,11,09,47,15.70
2012,03,11,09,48,15.20
2012,03,11,09,49,15.00
2012,03,11,09,50,15.10
2012,03,11,09,51,16.30
2012,03,11,09,52,12.20
2012,03,11,09,53,8.70
2012,03,11,09,54,10.00
2012,03,11,09,55,4.30
2012,03,11,09,56,12.30
2012,03,11,09,57,13.40
2012,03,11,09,58,11.50
2012,03,11,09,59,10.20
2012,03,11,10,00,2.70
2012,03,11,10,01,9.50
2012,03,11,10,02,5.10
2012,03,11,10,03,6.20
2012,03,11,10,04,6.80
2012,03,11,10,05,12.50
2012,03,11,10,06,15.00
2012,03,11,10,07,14.70
2012,03,11,10,08,7.00
2012,03,11,10,09,10.20
2012,03,11,10,10,11.70
2012,03,11,10,11,6.90
2012,03,11,10,12,8.90
2012,03,11,10,13,5.90
2012,03,11,10,14,12.50
2012,03,11,10,15,12.40
2012,03,11,10,16,11.70
2012,03,11,10,17,10.10
2012,03,11,10,18,8.40
2012,03,11,10,19,9.30
2012,03,11,10,20,11.00
2012,03,11,10,21,7.20
2012,03,11,10,22,4.80
2012,03,11,10,23,5.20
2012,03,11,10,24,8.90
2012,03,11,10,25,8.20
2012,03,11,10,26,8.80
2012,03,11,10,27,9.20
2012,03,11,10,28,6.00
2012,03,11,10,29,8.70
2012,03,11,10,30,10.20
2012,03,11,10,31,11.80
2012,03,11,10,32,11.90
2012,03,11,10,33,12.50
2012,03,11,10,34,14.90
2012,03,11,10,35,13.50
2012,03,11,10,36,19.20
2012,03,11,10,37,11.90
2012,03,11,10,38,12.80
2012,03,11,10,39,16.30
2012,03,11,10,40,11.80
2012,03,11,10,41,15.60
2012,03,11,10,42,17.10
2012,03,11,10,43,16.20
2012,03,11,10,44,21.10
2012,03,11,10,45,9.60
2012,03,11,10,46,7.60
2012,03,11,10,47,12.60
2012,03,11,10,48,12.60
2012,03,11,10,49,19.10
2012,03,11,10,50,10.60
2012,03,11,10,51,19.20
2012,03,11,10,52,13.60
2012,03,11,10,53,7.90
2012,03,11,10,54,11.80
2012,03,11,10,55,16.10
2012,03,11,10,56,10.20
2012,03,11,10,57,12.10
2012,03,11,10,58,13.60
2012,03,11,10,59,12.30
2012,03,11,11,00,10.60
2012,03,11,11,01,8.60
2012,03,11,11,02,12.90
2012,03,11,11,03,12.30
2012,03,11,11,04,11.30
2012,03,11,11,05,9.70
2012,03,11,11,06,8.30
2012,03,11,11,07,17.50
2012,03,11,11,08,14.00
2012,03,11,11,09,9.70
2012,03,11,11,10,14.10
2012,03,11,11,11,12.90
2012,03,11,11,12,15.00
2012,03,11,11,13,12.50
2012,03,11,11,14,17.10
2012,03,11,11,15,16.70
2012,03,11,11,16,10.70
2012,03,11,11,17,7.40
2012,03,11,11,18,6.60
2012,03,11,11,19,4.20
2012,03,11,11,20,5.90
2012,03,11,11,21,12.90
2012,03,11,11,22,13.30
2012,03,11,11,23,9.30
2012,03,11,11,24,7.70
2012,03,11,11,25,7.50
2012,03,11,11,26,13.40
2012,03,11,11,27,14.50
2012,03,11,11,28,13.50
2012,03,11,11,29,16.90
2012,03,11,11,30,12.70
2012,03,11,11,31,9.20
2012,03,11,11,32,15.00
2012,03,11,11,33,8.60
2012,03,11,11,34,15.80
2012,03,11,11,35,15.60
2012,03,11,11,36,14.20
2012,03,11,11,37,7.60
2012,03,11,11,38,12.60
2012,03,11,11,39,9.10
2012,03,11,11,40,9.40
2012,03,11,11,41,19.70
2012,03,11,11,42,7.60
2012,03,11,11,43,18.50
2012,03,11,11,44,15.80
2012,03,11,11,45,16.30
2012,03,11,11,46,8.30
2012,03,11,11,47,6.60
2012,03,11,11,48,13.20
2012,03,11,11,49,19.60
2012,03,11,11,50,15.50
2012,03,11,11,51,15.00
2012,03,11,11,52,15.20
2012,03,11,11,53,10.90
2012,03,11,11,54,19.40
2012,03,11,11,55,11.60
2012,03,11,11,56,5.50
2012,03,11,11,57,14.80
2012,03,11,11,58,14.70
2012,03,11,11,59,8.20
2012,03,11,12,00,8.00
2012,03,11,12,01,12.10
2012,03,11,12,02,12.50
2012,03,11,12,03,15.70
2012,03,11,12,04,7.30
2012,03,11,12,05,18.40
2012,03,11,12,06,16.00
2012,03,11,12,07,14.00
2012,03,11,12,08,16.90
2012,03,11,12,09,15.30
2012,03,11,12,10,10.30
2012,03,11,12,11,11.70
2012,03,11,12,12,6.90
2012,03,11,12,13,3.20
2012,03,11,12,14,10.60
2012,03,11,12,15,16.80
2012,03,11,12,16,17.70
2012,03,11,12,17,14.00
2012,03,11,12,18,12.10
2012,03,11,12,19,17.50
2012,03,11,12,20,15.00
2012,03,11,12,21,13.70
2012,03,11,12,22,15.10
2012,03,11,12,23,25.50
2012,03,11,12,24,16.50
2012,03,11,12,25,17.90
2012,03,11,12,26,14.90
2012,03,11,12,27,13.70
2012,03,11,12,28,6.90
2012,03,11,12,29,8.80
2012,03,11,12,30,12.40
2012,03,11,12,31,12.30
2012,03,11,12,32,13.30
2012,03,11,12,33,11.70
2012,03,11,12,34,8.50
2012,03,11,12,35,18.10
2012,03,11,12,36,14.50
2012,03,11,12,37,9.00
2012,03,11,12,38,9.00
2012,03,11,12,39,9.90
2012,03,11,12,40,14.20
2012,03,11,12,41,20.10
2012,03,11,12,42,13.20
2012,03,11,12,43,16.10
2012,03,11,12,44,14.60
2012,03,11,12,45,12.90
2012,03,11,12,46,13.20
2012,03,11,12,47,10.20
2012,03,11,12,48,9.20
2012,03,11,12,49,5.70
2012,03,11,12,50,9.30
2012,03,11,12,51,14.30
2012,03,11,12,52,8.80
2012,03,11,12,53,11.60
2012,03,11,12,54,12.20
2012,03,11,12,55,15.50
2012,03,11,12,56,18.90
2012,03,11,12,57,12.30
2012,03,11,12,58,13.60
2012,03,11,12,59,14.20
2012,03,11,13,00,7.30
2012,03,11,13,01,11.50
2012,03,11,13,02,13.80
2012,03,11,13,03,16.20
2012,03,11,13,04,13.40
2012,03,11,13,05,18.30
2012,03,11,13,06,14.80
2012,03,11,13,07,12.70
2012,03,11,13,08,12.80
2012,03,11,13,09,14.60
2012,03,11,13,10,14.30
2012,03,11,13,11,14.00
2012,03,11,13,12,10.60
2012,03,11,13,13,14.90
2012,03,11,13,14,14.20
2012,03,11,13,15,11.70
2012,03,11,13,16,10.80
2012,03,11,13,17,10.10
2012,03,11,13,18,16.70
2012,03,11,13,19,12.70
2012,03,11,13,20,15.70
2012,03,11,13,21,8.70
2012,03,11,13,22,15.90
2012,03,11,13,23,11.00
2012,03,11,13,24,18.40
2012,03,11,13,25,17.00
2012,03,11,13,26,13.20
2012,03,11,13,27,10.60
2012,03,11,13,28,11.00
2012,03,11,13,29,11.00
2012,03,11,13,30,7.20
2012,03,11,13,31,9.80
2012,03,11,13,32,19.20
2012,03,11,13,33,14.20
2012,03,11,13,34,16.90
2012,03,11,13,35,12.90
2012,03,11,13,36,12.20
2012,03,11,13,37,10.60
2012,03,11,13,38,18.20
2012,03,11,13,39,14.60
2012,03,11,13,40,15.00
2012,03,11,13,41,13.90
2012,03,11,13,42,11.60
2012,03,11,13,43,10.80
2012,03,11,13,44,6.20
2012,03,11,13,45,14.20
2012,03,11,13,46,8.70
2012,03,11,13,47,13.90
2012,03,11,13,48,14.80
2012,03,11,13,49,14.30
2012,03,11,13,50,13.80
2012,03,11,13,51,15.00
2012,03,11,13,52,11.70
2012,03,11,13,53,10.00
2012,03,11,13,54,13.00
2012,03,11,13,55,10.20
2012,03,11,13,56,6.70
2012,03,11,13,57,7.80
2012,03,11,13,58,5.60
2012,03,11,13,59,6.00
2012,03,11,14,00,9.10
2012,03,11,14,01,6.80
2012,03,11,14,02,10.10
2012,03,11,14,03,11.40
2012,03,11,14,04,11.60
2012,03,11,14,05,15.10
2012,03,11,14,06,13.50
2012,03,11,14,07,6.70
2012,03,11,14,08,18.10
2012,03,11,14,09,15.00
2012,03,11,14,10,15.00
2012,03,11,14,11,14.80
2012,03,11,14,12,13.80
2012,03,11,14,13,9.90
2012,03,11,14,14,13.70
2012,03,11,14,15,10.90
2012,03,11,14,16,17.20
2012,03,11,14,17,6.00
2012,03,11,14,18,13.20
2012,03,11,14,19,13.20
2012,03,11,14,20,15.90
2012,03,11,14,21,14.30
2012,03,11,14,22,14.50
2012,03,11,14,23,10.90
2012,03,11,14,24,7.20
2012,03,11,14,25,8.80
2012,03,11,14,26,14.20
2012,03,11,14,27,12.90
2012,03,11,14,28,11.80
2012,03,11,14,29,11.00
2012,03,11,14,30,10.40
2012,03,11,14,31,15.50
2012,03,11,14,32,14.20
2012,03,11,14,33,7.90
2012,03,11,14,34,10.10
2012,03,11,14,35,15.60
2012,03,11,14,36,13.30
2012,03,11,14,37,9.70
2012,03,11,14,38,10.30
2012,03,11,14,39,12.90
2012,03,11,14,40,11.30
2012,03,11,14,41,18.50
2012,03,11,14,42,12.60
2012,03,11,14,43,6.40
2012,03,11,14,44,7.80
2012,03,11,14,45,10.00
2012,03,11,14,46,9.40
2012,03,11,14,47,10.20
2012,03,11,14,48,10.40
2012,03,11,14,49,6.90
2012,03,11,14,50,13.40
2012,03,11,14,51,9.90
2012,03,11,14,52,10.50
2012,03,11,14,53,13.60
2012,03,11,14,54,8.10
2012,03,11,14,55,17.10
2012,03,11,14,56,14.60
2012,03,11,14,57,10.80
2012,03,11,14,58,17.90
2012,03,11,14,59,17.00
2012,03,11,15,00,14.50
2012,03,11,15,01,13.00
2012,03,11,15,02,11.30
2012,03,11,15,03,11.70
2012,03,11,15,04,12.20
2012,03,11,15,05,10.50
2012,03,11,15,06,14.60
2012,03,11,15,07,15.00
2012,03,11,15,08,10.90
2012,03,11,15,09,9.30
2012,03,11,15,10,6.40
2012,03,11,15,11,2.90
2012,03,11,15,12,13.40
2012,03,11,15,13,13.20
2012,03,11,15,14,15.00
2012,03,11,15,15,14.60
2012,03,11,15,16,13.20
2012,03,11,15,17,13.40
2012,03,11,15,18,14.70
2012,03,11,15,19,14.20
2012,03,11,15,20,5.80
2012,03,11,15,21,8.20
2012,03,11,15,22,10.60
2012,03,11,15,23,8.60
2012,03,11,15,24,9.70
2012,03,11,15,25,8.60
2012,03,11,15,26,10.50
2012,03,11,15,27,5.30
2012,03,11,15,28,10.80
2012,03,11,15,29,9.70
2012,03,11,15,30,6.10
2012,03,11,15,31,7.60
2012,03,11,15,32,10.50
2012,03,11,15,33,5.30
2012,03,11,15,34,1.40
2012,03,11,15,35,8.60
2012,03,11,15,36,6.00
2012,03,11,15,37,10.60
2012,03,11,15,38,9.50
2012,03,11,15,39,7.10
2012,03,11,15,40,9.70
2012,03,11,15,41,9.70
2012,03,11,15,42,12.30
2012,03,11,15,43,8.90
2012,03,11,15,44,4.00
2012,03,11,15,45,9.80
2012,03,11,15,46,10.50
2012,03,11,15,47,10.90
2012,03,11,15,48,11.70
2012,03,11,15,49,6.90
2012,03,11,15,50,6.80
2012,03,11,15,51,9.50
2012,03,11,15,52,8.20
2012,03,11,15,53,6.70
2012,03,11,15,54,10.10
2012,03,11,15,55,12.00
2012,03,11,15,56,9.30
2012,03,11,15,57,10.70
2012,03,11,15,58,7.10
2012,03,11,15,59,8.80
2012,03,11,16,00,6.00
2012,03,11,16,01,10.20
2012,03,11,16,02,7.50
2012,03,11,16,03,10.00
2012,03,11,16,04,7.00
2012,03,11,16,05,10.60
2012,03,11,16,06,13.90
2012,03,11,16,07,5.90
2012,03,11,16,08,4.10
2012,03,11,16,09,7.10
2012,03,11,16,10,9.00
2012,03,11,16,11,11.10
2012,03,11,16,12,9.00
2012,03,11,16,13,6.60
2012,03,11,16,14,13.40
2012,03,11,16,15,9.10
2012,03,11,16,16,7.60
2012,03,11,16,17,8.30
2012,03,11,16,18,11.80
2012,03,11,16,19,10.90
2012,03,11,16,20,10.90
2012,03,11,16,21,7.80
2012,03,11,16,22,5.70
2012,03,11,16,23,7.20
2012,03,11,16,24,9.20
2012,03,11,16,25,5.60
2012,03,11,16,26,6.90
2012,03,11,16,27,12.20
2012,03,11,16,28,9.20
2012,03,11,16,29,4.30
2012,03,11,16,30,6.10
2012,03,11,16,31,4.70
2012,03,11,16,32,10.50
2012,03,11,16,33,12.40
2012,03,11,16,34,8.80
2012,03,11,16,35,6.80
2012,03,11,16,36,9.30
2012,03,11,16,37,9.30
2012,03,11,16,38,9.10
2012,03,11,16,39,7.40
2012,03,11,16,40,5.30
2012,03,11,16,41,3.60
2012,03,11,16,42,5.60
2012,03,11,16,43,7.70
2012,03,11,16,44,4.50
2012,03,11,16,45,6.50
2012,03,11,16,46,3.00
2012,03,11,16,47,7.70
2012,03,11,16,48,9.30
2012,03,11,16,49,10.60
2012,03,11,16,50,10.40
2012,03,11,16,51,13.00
2012,03,11,16,52,5.20
2012,03,11,16,53,10.00
2012,03,11,16,54,10.60
2012,03,11,16,55,9.00
2012,03,11,16,56,2.70
2012,03,11,16,57,5.60
2012,03,11,16,58,11.40
2012,03,11,16,59,8.00
2012,03,11,17,00,9.30
2012,03,11,17,01,6.40
2012,03,11,17,02,10.10
2012,03,11,17,03,6.00
2012,03,11,17,04,9.20
2012,03,11,17,05,13.80
2012,03,11,17,06,9.80
2012,03,11,17,07,7.60
2012,03,11,17,08,10.90
2012,03,11,17,09,11.90
2012,03,11,17,10,8.70
2012,03,11,17,11,9.30
2012,03,11,17,12,6.30
2012,03,11,17,13,7.70
2012,03,11,17,14,6.10
2012,03,11,17,15,8.40
2012,03,11,17,16,11.70
2012,03,11,17,17,6.70
2012,03,11,17,18,10.70
2012,03,11,17,19,9.20
2012,03,11,17,20,10.00
2012,03,11,17,21,9.00
2012,03,11,17,22,6.20
2012,03,11,17,23,3.80
2012,03,11,17,24,8.10
2012,03,11,17,25,10.80
2012,03,11,17,26,6.40
2012,03,11,17,27,8.50
2012,03,11,17,28,11.10
2012,03,11,17,29,9.30
2012,03,11,17,30,11.70
2012,03,11,17,31,7.50
2012,03,11,17,32,11.60
2012,03,11,17,33,9.20
2012,03,11,17,34,11.50
2012,03,11,17,35,12.40
2012,03,11,17,36,11.70
2012,03,11,17,37,13.70
2012,03,11,17,38,8.00
2012,03,11,17,39,11.70
2012,03,11,17,40,12.70
2012,03,11,17,41,8.10
2012,03,11,17,42,8.60
2012,03,11,17,43,7.90
2012,03,11,17,44,6.80
2012,03,11,17,45,5.80
2012,03,11,17,46,8.30
2012,03,11,17,47,6.80
2012,03,11,17,48,10.20
2012,03,11,17,49,10.20
2012,03,11,17,50,6.00
2012,03,11,17,51,6.50
2012,03,11,17,52,7.50
2012,03,11,17,53,11.40
2012,03,11,17,54,11.50
2012,03,11,17,55,5.30
2012,03,11,17,56,9.90
2012,03,11,17,57,2.70
2012,03,11,17,58,7.20
2012,03,11,17,59,6.50
2012,03,11,18,00,6.30
2012,03,11,18,01,6.80
2012,03,11,18,02,1.00
2012,03,11,18,03,9.80
2012,03,11,18,04,6.80
2012,03,11,18,05,6.20
2012,03,11,18,06,0.70
2012,03,11,18,07,3.10
2012,03,11,18,08,9.70
2012,03,11,18,09,7.50
2012,03,11,18,10,3.40
2012,03,11,18,11,6.90
2012,03,11,18,12,3.50
2012,03,11,18,13,6.20
2012,03,11,18,14,8.80
2012,03,11,18,15,8.10
2012,03,11,18,16,5.80
2012,03,11,18,17,3.70
2012,03,11,18,18,4.30
2012,03,11,18,19,3.50
2012,03,11,18,20,3.60
2012,03,11,18,21,7.00
2012,03,11,18,22,6.20
2012,03,11,18,23,8.30
2012,03,11,18,24,11.10
2012,03,11,18,25,5.20
2012,03,11,18,26,8.20
2012,03,11,18,27,2.90
2012,03,11,18,28,1.60
2012,03,11,18,29,9.10
2012,03,11,18,30,7.20
2012,03,11,18,31,7.20
2012,03,11,18,32,3.60
2012,03,11,18,33,3.90
2012,03,11,18,34,2.50
2012,03,11,18,35,3.00
2012,03,11,18,36,3.50
2012,03,11,18,37,4.60
2012,03,11,18,38,0.80
2012,03,11,18,39,4.30
2012,03,11,18,40,6.60
2012,03,11,18,41,5.70
2012,03,11,18,42,5.30
2012,03,11,18,43,5.90
2012,03,11,18,44,5.30
2012,03,11,18,45,8.90
2012,03,11,18,46,6.50
2012,03,11,18,47,3.60
2012,03,11,18,48,3.60
2012,03,11,18,49,3.20
2012,03,11,18,50,3.60
2012,03,11,18,51,1.80